DELTA 1 DEB

Satellite information

Favourite Embed

Satellite Type and Status

DEBRISIN ORBIT

Key statistics

Satellite DELTA 1 DEB at a glance.

Uptime

19030

Days in orbit

Revolutions

≈ 13.8

Per day

Orbit

SSO

Sun Synchronous Orbit

Inclination

102.7

Latest

Satellite identification and parameters

Extended collection of information and parameters for DELTA 1 DEB.

Object identification

Identified? True

Debris? True

Object name: DELTA 1 DEB

International designator: 1973-086EY

Object number (NORAD): 7190

Object ID (CCSDS): 7190

Country: UNITED STATES OF AMERICA (US)

Current information (Y/N): Y

RCS size: SMALL

Orbital parameters

Period: 104.534 minutes

Inclination: 102.736 deg

SMA: 7350.747 km

Apoapsis: 1138.0 km

Periapsis: 807.224 km

RAAN: 211.5097 deg

Eccentricy: 0.02249948

Argument of periapsis: 25.5177 deg

Mean anomaly: 335.6869 deg

Mean motion: 13.77544132 rev/day

Mean motion (dot): 0.00004156 rev/day2

B* drag term: 0.0035154232 1/REarth

Two-line elements (TLE)

Creation date: Dec. 12, 2025, 10:14 a.m.

Reference frame: TEME

Reference center: EARTH

Epoch: Dec. 12, 2025, 4:32 a.m. UTC

TLE line 0: 0 DELTA 1 DEB

TLE line 1: 1 07190U 73086EY 25346.18953293 .00004156 00000-0 35154-2 0 9997

TLE line 2: 2 07190 102.7360 211.5097 0224995 25.5177 335.6869 13.77544132553955

Live tracking on map

Real-time ground track for satellite DELTA 1 DEB.

In-orbit conjunctions

A list of the most updated potential collisions computed for object DELTA 1 DEB.

Target Orbit TCA Probability of collision Miss distance Type
NOAA 16 SSO 2025-12-15 23:25:59 0.0001689768 201.0 (m) PAYLOAD

Associated space launch

Meteorological satellite using radiometric imaging

DELTA 1 DEB was lifted into orbit during the mission ‘Delta 0300 | NOAA 3’, on board a Delta 0300 space rocket.

The launch took place on Nov. 6, 1973, 5:02 p.m. from Space Launch Complex 2W.

For more information about the launch, click the button.

Launch to space Delta 0300 | NOAA 3
Delta 0300 | NOAA 3

Agency: N/A

Status: Launch Successful

Launch date: Nov. 6, 1973, 5:02 p.m. UTC

Rocket: Delta 0300

Launch pad: Space Launch Complex 2W

Location: Vandenberg SFB, CA, USA

...

Latest news about this satellite

There are no fresh news available about this satellite. Check back as we update our databases every day.


Newsletter sign-up

Weekly statistics, charts and insights to help you stay on top of the space industry.